TNS 0-2 (42914 NORAD) Tracking and Keplerian Element Data

This shows tracking and keplerian element data for the satellite.

Feedback or suggestion? Click here.




ElementValue
Catalog42914
NameTNS 0-2
Epoch Orbit10082
Epoch Day143.22771312
Epoch Year2019
RAAN67.7075
Inclination51.6354
Eccentricity0.0005201
Argument of Perigee78.941
Mean Anonmoly281.2177
Mean Motion15.82219197
Decay Rate0.0003679
L11 42914U 98067ND 19143.22771312 .00036790 00000-0 17732-3 0 9991
L22 42914 51.6354 67.7075 0005201 78.9410 281.2177 15.82219197100829

Live tracking and technical data element details for TNS 0-2 (NORAD 42914). TNS 0-2 can be tracked NOW for your location showing map with azimuth and elevation plus other details from your city location.

Track the satellite on the map from your city or location and see movement details for azimuth, elevation, latitude, longitude, range, height, and movement on the map or in text.







IsCatalogInMostPopularTable: catalog: 42914, numindb: 225
Update: records affected: 1



GetName: 42914 TNS 0-2

Hit Count: updated at: Sun, 26 May 2019 19:47:41 GMT